| time (UTC) | temp F | wind direction | speed MPH | gust MPH | rain 1hr in | rain 24hr in | rain mn in | humidity % | barometer mb |
| 20260503184533 | 60 | 247 | 0.0 | 1.0 | 0.00 | 0.05 | 0.00 | 73 | 1007.0 |
| 20260503184027 | 60 | 247 | 0.0 | 1.0 | 0.00 | 0.05 | 0.00 | 72 | 1007.0 |
| 20260503183524 | 60 | 247 | 0.0 | 2.0 | 0.00 | 0.05 | 0.00 | 71 | 1006.9 |
| 20260503183026 | 60 | 247 | 0.0 | 2.0 | 0.00 | 0.05 | 0.00 | 70 | 1006.8 |
| 20260503182524 | 60 | 247 | 0.0 | 1.0 | 0.00 | 0.05 | 0.00 | 69 | 1006.8 |
| 20260503182026 | 60 | 246 | 0.0 | 0.0 | 0.00 | 0.05 | 0.00 | 69 | 1006.7 |
| 20260503181523 | 61 | 246 | 0.0 | 0.0 | 0.00 | 0.05 | 0.00 | 69 | 1006.8 |
| 20260503181024 | 61 | 246 | 0.0 | 1.0 | 0.00 | 0.05 | 0.00 | 68 | 1006.8 |
| 20260503180524 | 61 | 246 | 0.0 | 1.0 | 0.00 | 0.05 | 0.00 | 68 | 1006.8 |
| 20260503180041 | 61 | 246 | 0.0 | 2.0 | 0.00 | 0.05 | 0.00 | 67 | 1006.9 |
| 20260503175522 | 61 | 246 | 0.0 | 3.0 | 0.00 | 0.24 | 0.00 | 66 | 1006.8 |
| 20260503175022 | 61 | 246 | 0.0 | 3.0 | 0.00 | 0.24 | 0.00 | 66 | 1006.8 |
| 20260503174526 | 62 | 244 | 0.0 | 3.0 | 0.00 | 0.24 | 0.00 | 67 | 1006.7 |
| 20260503174022 | 62 | 244 | 0.0 | 2.0 | 0.00 | 0.24 | 0.00 | 65 | 1006.8 |
| 20260503173522 | 62 | 244 | 0.0 | 4.0 | 0.00 | 0.24 | 0.00 | 65 | 1006.7 |
| 20260503173029 | 63 | 244 | 1.0 | 4.0 | 0.00 | 0.24 | 0.00 | 65 | 1006.8 |
| 20260503172521 | 63 | 255 | 0.0 | 3.0 | 0.00 | 0.24 | 0.00 | 66 | 1006.7 |
| 20260503172024 | 63 | 256 | 0.0 | 3.0 | 0.00 | 0.24 | 0.00 | 68 | 1006.7 |
| 20260503171521 | 63 | 260 | 0.0 | 4.0 | 0.00 | 0.24 | 0.00 | 68 | 1006.7 |
| 20260503171021 | 63 | 260 | 0.0 | 4.0 | 0.00 | 0.24 | 0.00 | 66 | 1006.7 |
| 20260503170523 | 63 | 278 | 0.0 | 3.0 | 0.00 | 0.24 | 0.00 | 66 | 1006.8 |
| 20260503151011 | 60 | 336 | 0.0 | 5.0 | 0.00 | 0.24 | 0.00 | 72 | 1006.9 |
| 20260503150514 | 60 | 236 | 0.0 | 3.0 | 0.00 | 0.24 | 0.00 | 72 | 1007.0 |
| 20260503131007 | 60 | 355 | 0.0 | 4.0 | 0.00 | 0.24 | 0.00 | 70 | 1007.1 |
| 20260503130507 | 61 | 360 | 0.0 | 4.0 | 0.00 | 0.24 | 0.00 | 70 | 1007.1 |
| 20260503110550 | 57 | 251 | 2.0 | 8.0 | 0.00 | 0.24 | 0.00 | 76 | 1007.2 |
| 20260503081538 | 52 | 267 | 0.0 | 3.0 | 0.00 | 0.24 | 0.00 | 93 | 1007.0 |
| 20260503081028 | 52 | 315 | 1.0 | 5.0 | 0.00 | 0.24 | 0.00 | 94 | 1007.0 |
| 20260503080528 | 52 | 250 | 1.0 | 5.0 | 0.00 | 0.24 | 0.00 | 94 | 1006.9 |
| 20260503072524 | 51 | 237 | 0.0 | 4.0 | 0.00 | 0.24 | 0.00 | 94 | 1007.1 |
| 20260503072027 | 51 | 255 | 1.0 | 5.0 | 0.00 | 0.24 | 0.00 | 94 | 1007.1 |
| 20260503071524 | 51 | 247 | 2.0 | 5.0 | 0.00 | 0.24 | 0.00 | 94 | 1007.0 |
| 20260503071024 | 51 | 252 | 2.0 | 5.0 | 0.00 | 0.24 | 0.00 | 94 | 1007.0 |
| 20260503070526 | 51 | 254 | 2.0 | 7.0 | 0.00 | 0.24 | 0.00 | 94 | 1006.9 |
| 20260503055017 | 50 | 250 | 0.0 | 2.0 | 0.00 | 0.24 | 0.00 | 95 | 1006.6 |
| 20260503054518 | 50 | 250 | 0.0 | 2.0 | 0.00 | 0.24 | 0.00 | 95 | 1006.6 |
| 20260503054016 | 50 | 250 | 0.0 | 3.0 | 0.00 | 0.24 | 0.00 | 95 | 1006.6 |
| 20260503053517 | 50 | 250 | 0.0 | 3.0 | 0.00 | 0.24 | 0.00 | 95 | 1006.6 |
| 20260503053019 | 50 | 249 | 0.0 | 3.0 | 0.00 | 0.24 | 0.00 | 95 | 1006.6 |
| 20260503052515 | 50 | 227 | 0.0 | 2.0 | 0.00 | 0.24 | 0.00 | 95 | 1006.6 |
| 20260503052015 | 50 | 234 | 0.0 | 1.0 | 0.00 | 0.24 | 0.00 | 95 | 1006.6 |
| 20260503051530 | 50 | 243 | 0.0 | 1.0 | 0.00 | 0.24 | 0.00 | 95 | 1006.6 |
| 20260503051014 | 50 | 221 | 0.0 | 0.0 | 0.00 | 0.24 | 0.00 | 95 | 1006.5 |
| 20260503050514 | 50 | 221 | 0.0 | 0.0 | 0.00 | 0.24 | 0.00 | 95 | 1006.4 |
| 20260503050014 | 50 | 220 | 0.0 | 2.0 | 0.00 | 0.24 | 0.00 | 95 | 1006.3 |
| 20260503045516 | 50 | 220 | 0.0 | 3.0 | 0.00 | 0.24 | 0.00 | 95 | 1006.3 |
| 20260503045012 | 50 | 220 | 0.0 | 4.0 | 0.00 | 0.24 | 0.00 | 95 | 1006.3 |
| 20260503044513 | 50 | 256 | 0.0 | 4.0 | 0.00 | 0.24 | 0.00 | 95 | 1006.2 |
| 20260503044013 | 50 | 289 | 2.0 | 4.0 | 0.00 | 0.24 | 0.00 | 95 | 1006.3 |
| 20260503043513 | 50 | 259 | 1.0 | 4.0 | 0.00 | 0.24 | 0.00 | 95 | 1006.4 |
| 20260503043014 | 50 | 243 | 0.0 | 4.0 | 0.00 | 0.24 | 0.00 | 95 | 1006.5 |
| 20260503042512 | 50 | 228 | 0.0 | 7.0 | 0.00 | 0.24 | 0.00 | 95 | 1006.5 |
| 20260503042012 | 50 | 252 | 2.0 | 5.0 | 0.00 | 0.24 | 0.00 | 95 | 1006.5 |
| 20260503041512 | 50 | 219 | 1.0 | 5.0 | 0.00 | 0.24 | 0.00 | 95 | 1006.4 |
| 20260503041014 | 50 | 243 | 1.0 | 7.0 | 0.00 | 0.24 | 0.00 | 95 | 1006.4 |
| 20260503040511 | 50 | 238 | 3.0 | 8.0 | 0.00 | 0.24 | 0.00 | 95 | 1006.3 |
| 20260503040011 | 50 | 243 | 1.0 | 4.0 | 0.00 | 0.24 | 0.00 | 95 | 1006.3 |
| 20260503035511 | 50 | 248 | 1.0 | 5.0 | 0.00 | 0.24 | 0.00 | 95 | 1006.2 |
| 20260503035011 | 50 | 253 | 1.0 | 6.0 | 0.00 | 0.24 | 0.00 | 95 | 1006.3 |
| 20260503034509 | 50 | 232 | 1.0 | 5.0 | 0.00 | 0.24 | 0.00 | 95 | 1006.4 |
| 20260503034008 | 50 | 229 | 1.0 | 6.0 | 0.00 | 0.24 | 0.00 | 95 | 1006.4 |
| 20260503033514 | 50 | 248 | 2.0 | 6.0 | 0.00 | 0.24 | 0.00 | 95 | 1006.4 |
| 20260503033014 | 50 | 246 | 0.0 | 7.0 | 0.00 | 0.24 | 0.00 | 95 | 1006.4 |
| 20260503032508 | 50 | 233 | 1.0 | 9.0 | 0.00 | 0.24 | 0.00 | 94 | 1006.5 |
| 20260503032009 | 50 | 226 | 1.0 | 9.0 | 0.00 | 0.24 | 0.00 | 94 | 1006.4 |
| 20260503031608 | 50 | 232 | 2.0 | 9.0 | 0.00 | 0.24 | 0.00 | 94 | 1006.4 |
| 20260503031007 | 50 | 232 | 2.0 | 6.0 | 0.00 | 0.24 | 0.00 | 94 | 1006.4 |
| 20260503030507 | 51 | 173 | 0.0 | 5.0 | 0.00 | 0.24 | 0.00 | 94 | 1006.4 |
| 20260503030010 | 51 | 236 | 1.0 | 6.0 | 0.00 | 0.24 | 0.00 | 94 | 1006.4 |
| 20260503025506 | 51 | 228 | 2.0 | 6.0 | 0.00 | 0.24 | 0.00 | 94 | 1006.3 |
| 20260503025005 | 51 | 261 | 0.0 | 3.0 | 0.00 | 0.24 | 0.00 | 94 | 1006.3 |
| 20260503024505 | 51 | 232 | 0.0 | 4.0 | 0.00 | 0.24 | 0.00 | 94 | 1006.3 |
| 20260503024005 | 51 | 268 | 1.0 | 4.0 | 0.00 | 0.24 | 0.00 | 94 | 1006.3 |
| 20260503023504 | 51 | 254 | 0.0 | 1.0 | 0.00 | 0.24 | 0.00 | 94 | 1006.2 |
| 20260503023003 | 51 | 252 | 0.0 | 2.0 | 0.00 | 0.24 | 0.00 | 94 | 1006.3 |
| 20260503022502 | 51 | 249 | 0.0 | 3.0 | 0.00 | 0.24 | 0.00 | 94 | 1006.4 |
| 20260503022002 | 51 | 229 | 0.0 | 4.0 | 0.00 | 0.24 | 0.00 | 94 | 1006.4 |
| 20260503021501 | 51 | 232 | 1.0 | 6.0 | 0.00 | 0.24 | 0.00 | 94 | 1006.4 |
| 20260503021100 | 52 | 255 | 2.0 | 6.0 | 0.00 | 0.24 | 0.00 | 94 | 1006.5 |
| 20260503020559 | 52 | 228 | 1.0 | 4.0 | 0.00 | 0.24 | 0.00 | 94 | 1006.5 |
| 20260503020059 | 52 | 174 | 0.0 | 3.0 | 0.00 | 0.24 | 0.00 | 94 | 1006.6 |
| 20260503015558 | 52 | 201 | 0.0 | 3.0 | 0.00 | 0.24 | 0.00 | 94 | 1006.6 |
| 20260503015057 | 52 | 186 | 0.0 | 3.0 | 0.00 | 0.24 | 0.00 | 94 | 1006.6 |
| 20260503014605 | 52 | 167 | 0.0 | 3.0 | 0.00 | 0.24 | 0.00 | 94 | 1006.7 |
| 20260503014057 | 52 | 346 | 0.0 | 5.0 | 0.00 | 0.24 | 0.00 | 94 | 1006.7 |
| 20260503013556 | 52 | 132 | 1.0 | 5.0 | 0.00 | 0.24 | 0.00 | 94 | 1006.7 |
| 20260503013056 | 52 | 153 | 0.0 | 3.0 | 0.00 | 0.24 | 0.00 | 94 | 1006.8 |
| 20260503012555 | 52 | 215 | 0.0 | 5.0 | 0.00 | 0.24 | 0.00 | 94 | 1006.7 |
| 20260503012055 | 52 | 247 | 0.0 | 5.0 | 0.00 | 0.24 | 0.00 | 94 | 1006.8 |
| 20260503011600 | 52 | 137 | 0.0 | 3.0 | 0.00 | 0.24 | 0.00 | 94 | 1006.8 |
| 20260503011054 | 52 | 138 | 0.0 | 3.0 | 0.00 | 0.24 | 0.00 | 94 | 1006.9 |
| 20260503010554 | 52 | 170 | 0.0 | 2.0 | 0.00 | 0.24 | 0.00 | 94 | 1006.9 |
| 20260503010107 | 52 | 140 | 0.0 | 3.0 | 0.00 | 0.24 | 0.00 | 94 | 1007.0 |
| 20260503005557 | 52 | 140 | 0.0 | 3.0 | 0.00 | 0.24 | 0.00 | 94 | 1007.0 |
| 20260503005053 | 52 | 147 | 0.0 | 3.0 | 0.00 | 0.24 | 0.00 | 94 | 1007.0 |
| 20260503004554 | 52 | 167 | 0.0 | 2.0 | 0.00 | 0.24 | 0.00 | 94 | 1007.1 |
| 20260503004051 | 52 | 150 | 0.0 | 3.0 | 0.00 | 0.24 | 0.00 | 94 | 1007.1 |
| 20260503003551 | 52 | 140 | 0.0 | 3.0 | 0.00 | 0.24 | 0.00 | 94 | 1007.1 |
| 20260503003059 | 52 | 225 | 0.0 | 1.0 | 0.00 | 0.24 | 0.00 | 94 | 1007.1 |
| 20260503002551 | 53 | 225 | 0.0 | 2.0 | 0.00 | 0.24 | 0.00 | 94 | 1007.1 |
| 20260503002050 | 53 | 204 | 0.0 | 2.0 | 0.00 | 0.24 | 0.00 | 94 | 1007.1 |
| 20260503001549 | 53 | 200 | 0.0 | 5.0 | 0.00 | 0.24 | 0.00 | 94 | 1007.2 |
| 20260503001051 | 53 | 246 | 0.0 | 5.0 | 0.00 | 0.24 | 0.00 | 94 | 1007.4 |
| 20260503000546 | 53 | 136 | 0.0 | 3.0 | 0.00 | 0.24 | 0.00 | 94 | 1007.4 |
| 20260503000053 | 53 | 223 | 0.0 | 4.0 | 0.00 | 0.24 | 0.00 | 94 | 1007.5 |
| 20260502235548 | 53 | 142 | 0.0 | 3.0 | 0.00 | 0.24 | 0.00 | 94 | 1007.6 |
| 20260502235045 | 54 | 214 | 0.0 | 7.0 | 0.00 | 0.24 | 0.00 | 94 | 1007.5 |
| 20260502234544 | 54 | 140 | 1.0 | 7.0 | 0.00 | 0.24 | 0.00 | 94 | 1007.6 |
| 20260502234046 | 54 | 140 | 0.0 | 3.0 | 0.00 | 0.24 | 0.00 | 94 | 1007.4 |
| 20260502233545 | 54 | 153 | 0.0 | 3.0 | 0.00 | 0.24 | 0.00 | 94 | 1007.4 |
| 20260502233043 | 54 | 178 | 0.0 | 2.0 | 0.00 | 0.24 | 0.00 | 94 | 1007.4 |
| 20260502232543 | 54 | 214 | 0.0 | 2.0 | 0.00 | 0.24 | 0.00 | 94 | 1007.5 |
| 20260502232041 | 54 | 213 | 0.0 | 3.0 | 0.00 | 0.24 | 0.00 | 94 | 1007.5 |
| 20260502231541 | 54 | 290 | 0.0 | 3.0 | 0.00 | 0.24 | 0.00 | 94 | 1007.6 |
| 20260502231042 | 54 | 131 | 0.0 | 3.0 | 0.00 | 0.24 | 0.00 | 94 | 1007.7 |
| 20260502230543 | 54 | 213 | 0.0 | 2.0 | 0.01 | 0.24 | 0.00 | 94 | 1007.6 |
| 20260502230040 | 54 | 271 | 0.0 | 1.0 | 0.01 | 0.24 | 0.00 | 94 | 1007.6 |
| 20260502225539 | 54 | 288 | 0.0 | 1.0 | 0.02 | 0.24 | 0.24 | 94 | 1007.6 |
| 20260502225038 | 55 | 288 | 0.0 | 2.0 | 0.02 | 0.24 | 0.24 | 94 | 1007.5 |
| 20260502224538 | 55 | 288 | 0.0 | 4.0 | 0.02 | 0.24 | 0.24 | 94 | 1007.5 |
| 20260502224038 | 55 | 215 | 1.0 | 4.0 | 0.02 | 0.24 | 0.24 | 94 | 1007.4 |
| 20260502223540 | 55 | 172 | 1.0 | 4.0 | 0.02 | 0.24 | 0.24 | 94 | 1007.5 |
| 20260502223038 | 55 | 218 | 1.0 | 5.0 | 0.02 | 0.24 | 0.24 | 95 | 1007.6 |
| 20260502222538 | 56 | 130 | 0.0 | 5.0 | 0.02 | 0.24 | 0.24 | 95 | 1007.6 |
| 20260502222037 | 56 | 177 | 0.0 | 3.0 | 0.02 | 0.24 | 0.24 | 95 | 1007.6 |
| 20260502221537 | 56 | 128 | 0.0 | 3.0 | 0.03 | 0.24 | 0.24 | 94 | 1007.6 |
| 20260502221037 | 55 | 131 | 0.0 | 6.0 | 0.04 | 0.24 | 0.24 | 94 | 1007.6 |
| 20260502220535 | 55 | 153 | 1.0 | 6.0 | 0.03 | 0.24 | 0.24 | 94 | 1007.8 |
| 20260502220037 | 55 | 118 | 1.0 | 3.0 | 0.02 | 0.23 | 0.23 | 95 | 1007.8 |
| 20260502215534 | 55 | 156 | 0.0 | 3.0 | 0.02 | 0.23 | 0.23 | 94 | 1007.8 |
| 20260502215036 | 55 | 157 | 0.0 | 3.0 | 0.02 | 0.23 | 0.23 | 94 | 1007.9 |
| 20260502214534 | 55 | 138 | 0.0 | 2.0 | 0.02 | 0.22 | 0.22 | 94 | 1008.0 |
| 20260502214035 | 55 | 97 | 0.0 | 8.0 | 0.02 | 0.22 | 0.22 | 94 | 1008.0 |
| 20260502213532 | 55 | 78 | 1.0 | 8.0 | 0.02 | 0.22 | 0.22 | 94 | 1008.0 |
| 20260502213132 | 55 | 143 | 0.0 | 1.0 | 0.02 | 0.22 | 0.22 | 94 | 1008.0 |
| 20260502212531 | 55 | 139 | 0.0 | 1.0 | 0.02 | 0.22 | 0.22 | 94 | 1008.1 |
| 20260502212029 | 55 | 111 | 0.0 | 1.0 | 0.02 | 0.22 | 0.22 | 94 | 1008.1 |
| 20260502211531 | 55 | 64 | 0.0 | 1.0 | 0.01 | 0.21 | 0.21 | 94 | 1008.3 |
| 20260502211028 | 55 | 164 | 0.0 | 0.0 | 0.00 | 0.20 | 0.20 | 94 | 1008.4 |
| 20260502210528 | 55 | 164 | 0.0 | 1.0 | 0.00 | 0.20 | 0.20 | 94 | 1008.5 |
| 20260502210028 | 55 | 164 | 0.0 | 3.0 | 0.00 | 0.20 | 0.20 | 94 | 1008.5 |
| 20260502205528 | 55 | 179 | 0.0 | 3.0 | 0.00 | 0.20 | 0.20 | 94 | 1008.4 |
| 20260502205027 | 55 | 159 | 1.0 | 3.0 | 0.00 | 0.20 | 0.20 | 94 | 1008.4 |
| 20260502204527 | 55 | 135 | 0.0 | 3.0 | 0.00 | 0.20 | 0.20 | 94 | 1008.5 |
| 20260502204027 | 55 | 148 | 0.0 | 2.0 | 0.00 | 0.20 | 0.20 | 94 | 1008.6 |
| 20260502203527 | 55 | 58 | 0.0 | 2.0 | 0.00 | 0.20 | 0.20 | 94 | 1008.6 |
| 20260502203027 | 55 | 117 | 0.0 | 3.0 | 0.00 | 0.20 | 0.20 | 94 | 1008.6 |
| 20260502202527 | 55 | 121 | 0.0 | 3.0 | 0.00 | 0.20 | 0.20 | 94 | 1008.6 |
| 20260502202026 | 55 | 29 | 1.0 | 3.0 | 0.00 | 0.20 | 0.20 | 94 | 1008.6 |
| 20260502201531 | 55 | 48 | 1.0 | 3.0 | 0.00 | 0.20 | 0.20 | 94 | 1008.6 |
| 20260502201029 | 55 | 43 | 1.0 | 5.0 | 0.00 | 0.20 | 0.20 | 94 | 1008.5 |
| 20260502200526 | 55 | 72 | 1.0 | 5.0 | 0.00 | 0.20 | 0.20 | 94 | 1008.4 |
| 20260502200025 | 55 | 55 | 1.0 | 3.0 | 0.00 | 0.20 | 0.20 | 94 | 1008.5 |
| 20260502195524 | 55 | 60 | 0.0 | 3.0 | 0.00 | 0.20 | 0.20 | 93 | 1008.6 |
| 20260502195023 | 55 | 66 | 0.0 | 3.0 | 0.00 | 0.20 | 0.20 | 93 | 1008.7 |
| 20260502194523 | 55 | 62 | 1.0 | 3.0 | 0.00 | 0.20 | 0.20 | 93 | 1008.7 |
| 20260502194023 | 56 | 47 | 0.0 | 2.0 | 0.00 | 0.20 | 0.20 | 93 | 1008.6 |
| 20260502193523 | 56 | 74 | 0.0 | 3.0 | 0.00 | 0.20 | 0.20 | 93 | 1008.7 |
| 20260502193023 | 56 | 42 | 1.0 | 4.0 | 0.00 | 0.20 | 0.20 | 93 | 1008.6 |
| 20260502192525 | 56 | 37 | 1.0 | 4.0 | 0.00 | 0.20 | 0.20 | 93 | 1008.6 |
| 20260502192021 | 56 | 69 | 0.0 | 3.0 | 0.00 | 0.20 | 0.20 | 93 | 1008.8 |
| 20260502191523 | 56 | 66 | 1.0 | 3.0 | 0.00 | 0.20 | 0.20 | 92 | 1008.8 |
| 20260502191021 | 56 | 66 | 0.0 | 0.0 | 0.00 | 0.20 | 0.20 | 92 | 1008.9 |
| 20260502190522 | 56 | 41 | 0.0 | 0.0 | 0.00 | 0.20 | 0.20 | 92 | 1008.7 |
| 20260502190023 | 56 | 74 | 0.0 | 0.0 | 0.01 | 0.20 | 0.20 | 92 | 1008.9 |
| 20260502185519 | 56 | 87 | 0.0 | 3.0 | 0.01 | 0.20 | 0.20 | 92 | 1008.8 |
| 20260502185018 | 56 | 33 | 0.0 | 3.0 | 0.02 | 0.20 | 0.20 | 92 | 1009.0 |